Location: Cheching
(60.0667°N, 164.2167°W)
Time: 21:48:57
(UTC+00:00)

NOAA 15 - Pass Details

Date: 02 February 2021
Orbit: 798 x 812 km, 98.7° (Epoch: 07 March)

Event Time Altitude Azimuth Distance (km) Brightness Sun altitude
Rises 07:20:57 0° 221° (SW) 3,315 8.0 -30.4°
Reaches altitude 10° 07:24:22 10° 245° (WSW) 2,393 7.5 -30.8°
Maximum altitude 07:27:19 15° 279° (W) 2,073 7.5 -31.2°
Drops below altitude 10° 07:30:17 10° 313° (NW) 2,407 7.8 -31.5°
Sets 07:33:45 0° 337° (NNW) 3,347 8.4 -31.9°
